When you browse on this site, cookies collect data to enhance your experience and personalize the content and advertising you see.
Visit our Privacy Policy to learn more. By continuing to use the site, you agree to this use of cookies and data.
  • In Portugal
  • List of Countries
  • For 7 days
  • Water Temperature
  • Weather Map
  • Weather Widgets
  • user-avatar
    Login

    Hourly Weather Solden

    Today, 22 August, Thursday

    Time Temperature Precipitation Wind Pressure Humidity
    00:00 +8°C° 0.1 mm 1 mps 588 mmHg 91%
    01:00 +8°C° 0.1 mm 1 mps 588 mmHg 91%
    02:00 +8°C° 0 mm 1 mps 588 mmHg 90%
    03:00 +8°C° 0 mm 1 mps 588 mmHg 90%
    04:00 +8°C° 0 mm 1 mps 588 mmHg 89%
    05:00 +8°C° 0 mm 0 mps 589 mmHg 87%
    06:00 +9°C° 0 mm 0 mps 589 mmHg 85%
    07:00 +9°C° 0 mm 0 mps 590 mmHg 84%
    08:00 +11°C° 0.1 mm 0 mps 590 mmHg 78%
    09:00 +13°C° 0.1 mm 1 mps 591 mmHg 72%
    10:00 +15°C° 0.1 mm 1 mps 592 mmHg 67%
    11:00 +15°C° 0.8 mm 1 mps 592 mmHg 66%
    12:00 +16°C° 0.8 mm 1 mps 592 mmHg 65%
    13:00 +16°C° 0.8 mm 1 mps 592 mmHg 65%
    14:00 +16°C° 1.1 mm 1 mps 592 mmHg 66%
    15:00 +16°C° 1.1 mm 1 mps 591 mmHg 68%
    16:00 +14°C° 1.1 mm 0 mps 591 mmHg 69%
    17:00 +14°C° 0.7 mm 1 mps 591 mmHg 75%
    18:00 +12°C° 0.7 mm 1 mps 590 mmHg 81%
    19:00 +11°C° 0.7 mm 1 mps 589 mmHg 87%
    20:00 +10°C° 0.4 mm 1 mps 589 mmHg 87%
    21:00 +9°C° 0.4 mm 1 mps 589 mmHg 88%
    22:00 +8°C° 0.4 mm 1 mps 589 mmHg 88%
    23:00 +8°C° 0.1 mm 1 mps 589 mmHg 88%

    Tomorrow, 23 August, Friday

    Time Temperature Precipitation Wind Pressure Humidity
    00:00 +7°C° 0.1 mm 1 mps 588 mmHg 88%
    01:00 +7°C° 0.1 mm 1 mps 588 mmHg 87%
    02:00 +7°C° 0 mm 1 mps 588 mmHg 87%
    03:00 +7°C° 0 mm 1 mps 588 mmHg 88%
    04:00 +7°C° 0 mm 1 mps 588 mmHg 88%
    05:00 +8°C° 0 mm 1 mps 588 mmHg 86%
    06:00 +8°C° 0 mm 0 mps 589 mmHg 85%
    07:00 +9°C° 0 mm 0 mps 589 mmHg 83%
    08:00 +12°C° 0.4 mm 1 mps 590 mmHg 79%
    09:00 +13°C° 0.4 mm 1 mps 591 mmHg 74%
    10:00 +14°C° 0.4 mm 1 mps 592 mmHg 69%
    11:00 +15°C° 1 mm 1 mps 591 mmHg 69%
    12:00 +15°C° 1 mm 1 mps 591 mmHg 68%
    13:00 +16°C° 1 mm 1 mps 591 mmHg 67%
    14:00 +16°C° 0.6 mm 1 mps 591 mmHg 67%
    15:00 +15°C° 0.6 mm 1 mps 591 mmHg 67%
    16:00 +15°C° 0.6 mm 1 mps 591 mmHg 66%
    17:00 +14°C° 0.5 mm 1 mps 590 mmHg 72%
    18:00 +11°C° 0.5 mm 0 mps 589 mmHg 79%
    19:00 +10°C° 0.5 mm 0 mps 588 mmHg 85%
    20:00 +9°C° 0.5 mm 0 mps 588 mmHg 86%
    21:00 +9°C° 0.5 mm 0 mps 588 mmHg 86%
    22:00 +9°C° 0.5 mm 1 mps 588 mmHg 87%
    23:00 +9°C° 0 mm 1 mps 588 mmHg 87%

    Day after tomorrow, 24 August, Saturday

    Time Temperature Precipitation Wind Pressure Humidity
    00:00 +8°C° 0 mm 1 mps 587 mmHg 87%
    01:00 +7°C° 0 mm 1 mps 587 mmHg 87%
    02:00 +7°C° 0 mm 1 mps 587 mmHg 87%
    03:00 +7°C° 0 mm 1 mps 587 mmHg 86%
    04:00 +7°C° 0 mm 1 mps 586 mmHg 86%
    05:00 +8°C° 0 mm 1 mps 587 mmHg 84%
    06:00 +9°C° 0 mm 1 mps 588 mmHg 83%
    07:00 +10°C° 0 mm 1 mps 588 mmHg 81%
    08:00 +12°C° 0 mm 1 mps 589 mmHg 73%
    09:00 +14°C° 0 mm 1 mps 590 mmHg 66%
    10:00 +16°C° 0 mm 1 mps 591 mmHg 58%
    11:00 +18°C° 0.5 mm 1 mps 591 mmHg 57%
    12:00 +18°C° 0.5 mm 1 mps 591 mmHg 56%
    13:00 +19°C° 0.5 mm 1 mps 591 mmHg 55%
    14:00 +18°C° 0.9 mm 1 mps 591 mmHg 57%
    15:00 +18°C° 0.9 mm 1 mps 590 mmHg 59%
    16:00 +18°C° 0.9 mm 1 mps 590 mmHg 61%
    17:00 +15°C° 0.6 mm 1 mps 589 mmHg 69%
    18:00 +13°C° 0.6 mm 1 mps 588 mmHg 76%
    19:00 +10°C° 0.6 mm 0 mps 587 mmHg 84%
    20:00 +9°C° 0.6 mm 0 mps 587 mmHg 85%
    21:00 +9°C° 0.6 mm 1 mps 587 mmHg 86%
    22:00 +9°C° 0.6 mm 1 mps 587 mmHg 86%
    23:00 +8°C° 0 mm 1 mps 587 mmHg 87%

    25 August, Sunday

    Time Temperature Precipitation Wind Pressure Humidity
    00:00 +8°C° 0 mm 1 mps 586 mmHg 87%
    01:00 +8°C° 0 mm 1 mps 586 mmHg 88%
    02:00 +7°C° 0 mm 1 mps 586 mmHg 88%
    03:00 +7°C° 0 mm 1 mps 586 mmHg 88%
    04:00 +7°C° 0 mm 1 mps 585 mmHg 88%
    05:00 +8°C° 0 mm 1 mps 586 mmHg 86%
    06:00 +9°C° 0 mm 1 mps 587 mmHg 84%
    07:00 +10°C° 0 mm 0 mps 587 mmHg 82%
    08:00 +13°C° 0 mm 1 mps 588 mmHg 74%
    09:00 +15°C° 0 mm 1 mps 589 mmHg 66%
    10:00 +18°C° 0 mm 1 mps 590 mmHg 58%
    11:00 +18°C° 0.6 mm 1 mps 590 mmHg 57%
    12:00 +19°C° 0.6 mm 1 mps 590 mmHg 56%
    13:00 +19°C° 0.6 mm 1 mps 590 mmHg 54%
    14:00 +19°C° 0.9 mm 1 mps 590 mmHg 56%
    15:00 +19°C° 0.9 mm 1 mps 590 mmHg 57%
    16:00 +19°C° 0.9 mm 1 mps 590 mmHg 58%
    17:00 +16°C° 0.6 mm 1 mps 589 mmHg 67%
    18:00 +13°C° 0.6 mm 1 mps 588 mmHg 75%
    19:00 +10°C° 0.6 mm 0 mps 587 mmHg 84%
    20:00 +11°C° 0.3 mm 1 mps 587 mmHg 85%
    21:00 +10°C° 0.3 mm 1 mps 587 mmHg 86%
    22:00 +9°C° 0.3 mm 1 mps 587 mmHg 87%
    23:00 +9°C° 0.1 mm 1 mps 587 mmHg 87%

    26 August, Monday

    Time Temperature Precipitation Wind Pressure Humidity
    00:00 +8°C° 0.1 mm 1 mps 587 mmHg 87%
    01:00 +8°C° 0.1 mm 1 mps 587 mmHg 88%
    02:00 +8°C° 0 mm 1 mps 586 mmHg 88%
    03:00 +8°C° 0 mm 1 mps 586 mmHg 88%
    04:00 +7°C° 0 mm 1 mps 586 mmHg 88%
    05:00 +9°C° 0 mm 1 mps 587 mmHg 85%
    06:00 +10°C° 0 mm 1 mps 588 mmHg 83%
    07:00 +11°C° 0 mm 1 mps 588 mmHg 81%
    08:00 +13°C° 0 mm 1 mps 589 mmHg 73%
    09:00 +15°C° 0 mm 1 mps 590 mmHg 64%
    10:00 +18°C° 0 mm 1 mps 591 mmHg 56%
    11:00 +19°C° 0.2 mm 1 mps 592 mmHg 53%
    12:00 +20°C° 0.2 mm 1 mps 592 mmHg 51%
    13:00 +20°C° 0.2 mm 1 mps 592 mmHg 49%
    14:00 +20°C° 0.5 mm 1 mps 592 mmHg 51%
    15:00 +19°C° 0.5 mm 1 mps 591 mmHg 53%
    16:00 +19°C° 0.5 mm 1 mps 591 mmHg 56%
    17:00 +16°C° 0.7 mm 1 mps 590 mmHg 65%
    18:00 +14°C° 0.7 mm 1 mps 589 mmHg 74%
    19:00 +11°C° 0.7 mm 0 mps 588 mmHg 83%
    20:00 +11°C° 0.6 mm 1 mps 588 mmHg 84%
    21:00 +10°C° 0.6 mm 1 mps 588 mmHg 85%
    22:00 +9°C° 0.6 mm 1 mps 588 mmHg 87%
    23:00 +9°C° 0.2 mm 1 mps 588 mmHg 87%

    27 August, Tuesday

    Time Temperature Precipitation Wind Pressure Humidity
    00:00 +9°C° 0.2 mm 1 mps 587 mmHg 87%
    01:00 +8°C° 0.2 mm 1 mps 587 mmHg 87%
    02:00 +8°C° 0 mm 1 mps 587 mmHg 88%
    03:00 +8°C° 0 mm 1 mps 587 mmHg 88%
    04:00 +8°C° 0 mm 1 mps 586 mmHg 88%
    05:00 +9°C° 0 mm 1 mps 587 mmHg 87%
    06:00 +10°C° 0 mm 1 mps 588 mmHg 85%
    07:00 +11°C° 0 mm 1 mps 588 mmHg 84%
    08:00 +13°C° 0 mm 1 mps 589 mmHg 76%
    09:00 +15°C° 0 mm 1 mps 590 mmHg 69%
    10:00 +16°C° 0 mm 1 mps 590 mmHg 62%
    11:00 +18°C° 0.6 mm 1 mps 590 mmHg 61%
    12:00 +17°C° 0.6 mm 2 mps 590 mmHg 60%
    13:00 +18°C° 0.6 mm 2 mps 590 mmHg 59%
    14:00 +17°C° 0.7 mm 2 mps 590 mmHg 61%
    15:00 +17°C° 0.7 mm 2 mps 589 mmHg 63%
    16:00 +18°C° 0.7 mm 1 mps 589 mmHg 64%
    17:00 +15°C° 0.5 mm 1 mps 588 mmHg 71%
    18:00 +13°C° 0.5 mm 1 mps 587 mmHg 77%
    19:00 +12°C° 0.5 mm 1 mps 587 mmHg 84%
    20:00 +11°C° 0.3 mm 1 mps 586 mmHg 86%
    21:00 +10°C° 0.3 mm 1 mps 586 mmHg 87%
    22:00 +9°C° 0.3 mm 1 mps 586 mmHg 88%
    23:00 +9°C° 0 mm 1 mps 586 mmHg 89%
    Show more